owner,sensor,date,latitude,longitude,vertical_datum,sea_water_practical_salinity,qcFlag 
TABS,ioos:station:wmo:42050:1,2014-07-01T00:00:00Z,28.8425,-94.2433,2.0,31.9872,11111222 
TABS,ioos:station:wmo:42050:1,2014-07-01T00:30:00Z,28.8425,-94.2433,2.0,32.0388,11111222 
TABS,ioos:station:wmo:42050:1,2014-07-01T01:00:00Z,28.8425,-94.2433,2.0,32.1255,11111222 
TABS,ioos:station:wmo:42050:1,2014-07-01T01:30:00Z,28.8425,-94.2433,2.0,32.1784,11111222 
TABS,ioos:station:wmo:42050:1,2014-07-01T02:00:00Z,28.8425,-94.2433,2.0,32.2141,11111222 
TABS,ioos:station:wmo:42050:1,2014-07-01T02:30:00Z,28.8425,-94.2433,2.0,32.2066,11111222 
TABS,ioos:station:wmo:42050:1,2014-07-01T03:00:00Z,28.8425,-94.2433,2.0,32.1982,11111222 
TABS,ioos:station:wmo:42050:1,2014-07-01T03:30:00Z,28.8425,-94.2433,2.0,32.2261,11111222 
TABS,ioos:station:wmo:42050:1,2014-07-01T04:00:00Z,28.8425,-94.2433,2.0,32.253,11111222 
TABS,ioos:station:wmo:42050:1,2014-07-01T04:30:00Z,28.8425,-94.2433,2.0,32.2662,11111222 
TABS,ioos:station:wmo:42050:1,2014-07-01T05:00:00Z,28.8425,-94.2433,2.0,32.2791,11111222 
TABS,ioos:station:wmo:42050:1,2014-07-01T05:30:00Z,28.8425,-94.2433,2.0,32.293,11111222 
TABS,ioos:station:wmo:42050:1,2014-07-01T06:00:00Z,28.8425,-94.2433,2.0,32.2939,11111222 
TABS,ioos:station:wmo:42050:1,2014-07-01T06:30:00Z,28.8425,-94.2433,2.0,32.3121,11111222 
TABS,ioos:station:wmo:42050:1,2014-07-01T07:00:00Z,28.8425,-94.2433,2.0,32.3258,11111222 
TABS,ioos:station:wmo:42050:1,2014-07-01T07:30:00Z,28.8425,-94.2433,2.0,32.3194,11111222 
TABS,ioos:station:wmo:42050:1,2014-07-01T08:00:00Z,28.8425,-94.2433,2.0,32.3357,11111222 
TABS,ioos:station:wmo:42050:1,2014-07-01T08:30:00Z,28.8425,-94.2433,2.0,32.3455,11111222 
TABS,ioos:station:wmo:42050:1,2014-07-01T09:00:00Z,28.8425,-94.2433,2.0,32.3547,11111222 
TABS,ioos:station:wmo:42050:1,2014-07-01T09:30:00Z,28.8425,-94.2433,2.0,32.3755,11111222 
TABS,ioos:station:wmo:42050:1,2014-07-01T10:00:00Z,28.8425,-94.2433,2.0,32.3938,11111222 
TABS,ioos:station:wmo:42050:1,2014-07-01T10:30:00Z,28.8425,-94.2433,2.0,32.4081,11111222 
TABS,ioos:station:wmo:42050:1,2014-07-01T11:00:00Z,28.8425,-94.2433,2.0,32.4262,11111222 
TABS,ioos:station:wmo:42050:1,2014-07-01T11:30:00Z,28.8425,-94.2433,2.0,32.4459,11111222 
TABS,ioos:station:wmo:42050:1,2014-07-01T12:00:00Z,28.8425,-94.2433,2.0,32.4682,11111222 
TABS,ioos:station:wmo:42050:1,2014-07-01T12:30:00Z,28.8425,-94.2433,2.0,32.512,11111222 
TABS,ioos:station:wmo:42050:1,2014-07-01T13:00:00Z,28.8425,-94.2433,2.0,32.5544,11111222 
TABS,ioos:station:wmo:42050:1,2014-07-01T13:30:00Z,28.8425,-94.2433,2.0,32.567,11111222 
TABS,ioos:station:wmo:42050:1,2014-07-01T14:00:00Z,28.8425,-94.2433,2.0,32.5826,11111222 
TABS,ioos:station:wmo:42050:1,2014-07-01T14:30:00Z,28.8425,-94.2433,2.0,32.576,11111222 
TABS,ioos:station:wmo:42050:1,2014-07-01T15:00:00Z,28.8425,-94.2433,2.0,32.5792,11111222 
TABS,ioos:station:wmo:42050:1,2014-07-01T15:30:00Z,28.8425,-94.2433,2.0,32.5913,11111222 
TABS,ioos:station:wmo:42050:1,2014-07-01T16:00:00Z,28.8425,-94.2433,2.0,32.6036,11111222 
TABS,ioos:station:wmo:42050:1,2014-07-01T16:30:00Z,28.8425,-94.2433,2.0,32.6151,11111222 
TABS,ioos:station:wmo:42050:1,2014-07-01T17:00:00Z,28.8425,-94.2433,2.0,32.6124,11111222 
TABS,ioos:station:wmo:42050:1,2014-07-01T17:30:00Z,28.8425,-94.2433,2.0,32.6133,11111222 
TABS,ioos:station:wmo:42050:1,2014-07-01T18:00:00Z,28.8425,-94.2433,2.0,32.6311,11111222 
TABS,ioos:station:wmo:42050:1,2014-07-01T18:30:00Z,28.8425,-94.2433,2.0,32.6483,11111222 
TABS,ioos:station:wmo:42050:1,2014-07-01T19:00:00Z,28.8425,-94.2433,2.0,32.6357,11111222 
TABS,ioos:station:wmo:42050:1,2014-07-01T19:30:00Z,28.8425,-94.2433,2.0,32.6545,11111222 
TABS,ioos:station:wmo:42050:1,2014-07-01T20:00:00Z,28.8425,-94.2433,2.0,32.6593,11111222 
TABS,ioos:station:wmo:42050:1,2014-07-01T20:30:00Z,28.8425,-94.2433,2.0,32.6709,11111222 
TABS,ioos:station:wmo:42050:1,2014-07-01T21:00:00Z,28.8425,-94.2433,2.0,32.6906,11111222 
TABS,ioos:station:wmo:42050:1,2014-07-01T21:30:00Z,28.8425,-94.2433,2.0,32.6805,11111222 
TABS,ioos:station:wmo:42050:1,2014-07-01T22:00:00Z,28.8425,-94.2433,2.0,32.6988,11111222 
TABS,ioos:station:wmo:42050:1,2014-07-01T22:30:00Z,28.8425,-94.2433,2.0,32.6729,11111222 
TABS,ioos:station:wmo:42050:1,2014-07-01T23:00:00Z,28.8425,-94.2433,2.0,32.5948,11111222 
TABS,ioos:station:wmo:42050:1,2014-07-01T23:30:00Z,28.8425,-94.2433,2.0,32.5588,11111222 
TABS,ioos:station:wmo:42050:1,2014-07-02T00:00:00Z,28.8425,-94.2433,2.0,32.5596,11111222 
TABS,ioos:station:wmo:42050:1,2014-07-02T00:30:00Z,28.8425,-94.2433,2.0,32.5614,11111222 
TABS,ioos:station:wmo:42050:1,2014-07-02T01:00:00Z,28.8425,-94.2433,2.0,32.5696,11111222 
TABS,ioos:station:wmo:42050:1,2014-07-02T01:30:00Z,28.8425,-94.2433,2.0,32.5815,11111222 
TABS,ioos:station:wmo:42050:1,2014-07-02T02:00:00Z,28.8425,-94.2433,2.0,32.5906,11111222 
TABS,ioos:station:wmo:42050:1,2014-07-02T02:30:00Z,28.8425,-94.2433,2.0,32.6077,11111222 
TABS,ioos:station:wmo:42050:1,2014-07-02T03:00:00Z,28.8425,-94.2433,2.0,32.6181,11111222 
TABS,ioos:station:wmo:42050:1,2014-07-02T03:30:00Z,28.8425,-94.2433,2.0,32.6206,11111222 
TABS,ioos:station:wmo:42050:1,2014-07-02T04:00:00Z,28.8425,-94.2433,2.0,32.6184,11111222 
TABS,ioos:station:wmo:42050:1,2014-07-02T04:30:00Z,28.8425,-94.2433,2.0,32.6287,11111222 
TABS,ioos:station:wmo:42050:1,2014-07-02T05:00:00Z,28.8425,-94.2433,2.0,32.6148,11111222 
TABS,ioos:station:wmo:42050:1,2014-07-02T05:30:00Z,28.8425,-94.2433,2.0,32.616,11111222 
TABS,ioos:station:wmo:42050:1,2014-07-02T06:00:00Z,28.8425,-94.2433,2.0,32.6086,11111222 
TABS,ioos:station:wmo:42050:1,2014-07-02T06:30:00Z,28.8425,-94.2433,2.0,32.6081,11111222 
TABS,ioos:station:wmo:42050:1,2014-07-02T07:00:00Z,28.8425,-94.2433,2.0,32.5888,11111222 
TABS,ioos:station:wmo:42050:1,2014-07-02T07:30:00Z,28.8425,-94.2433,2.0,32.5714,11111222 
TABS,ioos:station:wmo:42050:1,2014-07-02T08:00:00Z,28.8425,-94.2433,2.0,32.5624,11111222 
TABS,ioos:station:wmo:42050:1,2014-07-02T08:30:00Z,28.8425,-94.2433,2.0,32.5588,11111222 
TABS,ioos:station:wmo:42050:1,2014-07-02T09:00:00Z,28.8425,-94.2433,2.0,32.5504,11111222 
TABS,ioos:station:wmo:42050:1,2014-07-02T09:30:00Z,28.8425,-94.2433,2.0,32.5404,11111222 
TABS,ioos:station:wmo:42050:1,2014-07-02T10:00:00Z,28.8425,-94.2433,2.0,32.5356,11111222 
TABS,ioos:station:wmo:42050:1,2014-07-02T10:30:00Z,28.8425,-94.2433,2.0,32.5275,11111222 
TABS,ioos:station:wmo:42050:1,2014-07-02T11:00:00Z,28.8425,-94.2433,2.0,32.5159,11111222 
TABS,ioos:station:wmo:42050:1,2014-07-02T11:30:00Z,28.8425,-94.2433,2.0,32.509,11111222 
TABS,ioos:station:wmo:42050:1,2014-07-02T12:00:00Z,28.8425,-94.2433,2.0,32.507,11111222 
TABS,ioos:station:wmo:42050:1,2014-07-02T12:30:00Z,28.8425,-94.2433,2.0,32.5099,11111222 
TABS,ioos:station:wmo:42050:1,2014-07-02T13:00:00Z,28.8425,-94.2433,2.0,32.5284,11111222 
TABS,ioos:station:wmo:42050:1,2014-07-02T13:30:00Z,28.8425,-94.2433,2.0,32.541,11111222 
TABS,ioos:station:wmo:42050:1,2014-07-02T14:00:00Z,28.8425,-94.2433,2.0,32.5694,11111222 
TABS,ioos:station:wmo:42050:1,2014-07-02T14:30:00Z,28.8425,-94.2433,2.0,32.5928,11111222 
TABS,ioos:station:wmo:42050:1,2014-07-02T15:00:00Z,28.8425,-94.2433,2.0,32.5705,11111222 
TABS,ioos:station:wmo:42050:1,2014-07-02T15:30:00Z,28.8425,-94.2433,2.0,32.5581,11111222 
TABS,ioos:station:wmo:42050:1,2014-07-02T16:00:00Z,28.8425,-94.2433,2.0,32.5492,11111222 
TABS,ioos:station:wmo:42050:1,2014-07-02T16:30:00Z,28.8425,-94.2433,2.0,32.553,11111222 
TABS,ioos:station:wmo:42050:1,2014-07-02T17:00:00Z,28.8425,-94.2433,2.0,32.586,11111222 
TABS,ioos:station:wmo:42050:1,2014-07-02T17:30:00Z,28.8425,-94.2433,2.0,32.5604,11111222 
TABS,ioos:station:wmo:42050:1,2014-07-02T18:00:00Z,28.8425,-94.2433,2.0,32.5607,11111222 
TABS,ioos:station:wmo:42050:1,2014-07-02T18:30:00Z,28.8425,-94.2433,2.0,32.5331,11111222 
TABS,ioos:station:wmo:42050:1,2014-07-02T19:00:00Z,28.8425,-94.2433,2.0,32.5956,11111222 
TABS,ioos:station:wmo:42050:1,2014-07-02T19:30:00Z,28.8425,-94.2433,2.0,32.6444,11111222 
TABS,ioos:station:wmo:42050:1,2014-07-02T20:00:00Z,28.8425,-94.2433,2.0,32.7167,11111222 
TABS,ioos:station:wmo:42050:1,2014-07-02T20:30:00Z,28.8425,-94.2433,2.0,32.7163,11111222 
TABS,ioos:station:wmo:42050:1,2014-07-02T21:00:00Z,28.8425,-94.2433,2.0,32.7291,11111222 
TABS,ioos:station:wmo:42050:1,2014-07-02T21:30:00Z,28.8425,-94.2433,2.0,32.7599,11111222 
TABS,ioos:station:wmo:42050:1,2014-07-02T22:00:00Z,28.8425,-94.2433,2.0,32.7649,11111222 
TABS,ioos:station:wmo:42050:1,2014-07-02T22:30:00Z,28.8425,-94.2433,2.0,32.7907,11111222 
TABS,ioos:station:wmo:42050:1,2014-07-02T23:00:00Z,28.8425,-94.2433,2.0,32.734,11111222 
TABS,ioos:station:wmo:42050:1,2014-07-02T23:30:00Z,28.8425,-94.2433,2.0,32.736,11111222 
TABS,ioos:station:wmo:42050:1,2014-07-03T00:00:00Z,28.8425,-94.2433,2.0,32.7253,11111222 
TABS,ioos:station:wmo:42050:1,2014-07-03T00:30:00Z,28.8425,-94.2433,2.0,32.7194,11111222 
TABS,ioos:station:wmo:42050:1,2014-07-03T01:00:00Z,28.8425,-94.2433,2.0,32.7049,11111222 
TABS,ioos:station:wmo:42050:1,2014-07-03T01:30:00Z,28.8425,-94.2433,2.0,32.6909,11111222 
TABS,ioos:station:wmo:42050:1,2014-07-03T02:00:00Z,28.8425,-94.2433,2.0,32.6761,11111222 
TABS,ioos:station:wmo:42050:1,2014-07-03T02:30:00Z,28.8425,-94.2433,2.0,32.6547,11111222 
TABS,ioos:station:wmo:42050:1,2014-07-03T03:00:00Z,28.8425,-94.2433,2.0,32.8366,11111222 
TABS,ioos:station:wmo:42050:1,2014-07-03T03:30:00Z,28.8425,-94.2433,2.0,32.936,11111222 
TABS,ioos:station:wmo:42050:1,2014-07-03T04:00:00Z,28.8425,-94.2433,2.0,32.9058,11111222 
TABS,ioos:station:wmo:42050:1,2014-07-03T04:30:00Z,28.8425,-94.2433,2.0,32.9618,11111222 
TABS,ioos:station:wmo:42050:1,2014-07-03T05:00:00Z,28.8425,-94.2433,2.0,33.0087,11111222 
TABS,ioos:station:wmo:42050:1,2014-07-03T05:30:00Z,28.8425,-94.2433,2.0,33.0321,11111222 
TABS,ioos:station:wmo:42050:1,2014-07-03T06:00:00Z,28.8425,-94.2433,2.0,33.0653,11111222 
TABS,ioos:station:wmo:42050:1,2014-07-03T06:30:00Z,28.8425,-94.2433,2.0,33.0961,11111222 
TABS,ioos:station:wmo:42050:1,2014-07-03T07:00:00Z,28.8425,-94.2433,2.0,33.1016,11111222 
TABS,ioos:station:wmo:42050:1,2014-07-03T07:30:00Z,28.8425,-94.2433,2.0,33.0397,11111222 
TABS,ioos:station:wmo:42050:1,2014-07-03T08:00:00Z,28.8425,-94.2433,2.0,33.009,11111222 
TABS,ioos:station:wmo:42050:1,2014-07-03T08:30:00Z,28.8425,-94.2433,2.0,32.9956,11111222 
TABS,ioos:station:wmo:42050:1,2014-07-03T09:00:00Z,28.8425,-94.2433,2.0,32.9918,11111222 
TABS,ioos:station:wmo:42050:1,2014-07-03T09:30:00Z,28.8425,-94.2433,2.0,32.9529,11111222 
TABS,ioos:station:wmo:42050:1,2014-07-03T10:00:00Z,28.8425,-94.2433,2.0,32.9505,11111222 
TABS,ioos:station:wmo:42050:1,2014-07-03T10:30:00Z,28.8425,-94.2433,2.0,32.9358,11111222 
TABS,ioos:station:wmo:42050:1,2014-07-03T11:00:00Z,28.8425,-94.2433,2.0,32.8938,11111222 
TABS,ioos:station:wmo:42050:1,2014-07-03T11:30:00Z,28.8425,-94.2433,2.0,32.94,11111222 
TABS,ioos:station:wmo:42050:1,2014-07-03T12:00:00Z,28.8425,-94.2433,2.0,32.9842,11111222 
TABS,ioos:station:wmo:42050:1,2014-07-03T12:30:00Z,28.8425,-94.2433,2.0,33.0049,11111222 
TABS,ioos:station:wmo:42050:1,2014-07-03T13:00:00Z,28.8425,-94.2433,2.0,33.0357,11111222 
TABS,ioos:station:wmo:42050:1,2014-07-03T13:30:00Z,28.8425,-94.2433,2.0,33.0268,11111222 
TABS,ioos:station:wmo:42050:1,2014-07-03T14:00:00Z,28.8425,-94.2433,2.0,33.0398,11111222 
TABS,ioos:station:wmo:42050:1,2014-07-03T14:30:00Z,28.8425,-94.2433,2.0,33.2675,11111222 
TABS,ioos:station:wmo:42050:1,2014-07-03T15:00:00Z,28.8425,-94.2433,2.0,33.263,11111222 
TABS,ioos:station:wmo:42050:1,2014-07-03T15:30:00Z,28.8425,-94.2433,2.0,33.1595,11111222 
TABS,ioos:station:wmo:42050:1,2014-07-03T16:00:00Z,28.8425,-94.2433,2.0,33.0929,11111222 
TABS,ioos:station:wmo:42050:1,2014-07-03T16:30:00Z,28.8425,-94.2433,2.0,33.0837,11111222 
TABS,ioos:station:wmo:42050:1,2014-07-03T17:00:00Z,28.8425,-94.2433,2.0,33.0897,11111222 
TABS,ioos:station:wmo:42050:1,2014-07-03T17:30:00Z,28.8425,-94.2433,2.0,33.0841,11111222 
TABS,ioos:station:wmo:42050:1,2014-07-03T18:00:00Z,28.8425,-94.2433,2.0,33.0902,11111222 
TABS,ioos:station:wmo:42050:1,2014-07-03T18:30:00Z,28.8425,-94.2433,2.0,33.0781,11111222 
TABS,ioos:station:wmo:42050:1,2014-07-03T19:00:00Z,28.8425,-94.2433,2.0,33.0862,11111222 
TABS,ioos:station:wmo:42050:1,2014-07-03T19:30:00Z,28.8425,-94.2433,2.0,33.0949,11111222 
TABS,ioos:station:wmo:42050:1,2014-07-03T20:00:00Z,28.8425,-94.2433,2.0,33.1004,11111222 
TABS,ioos:station:wmo:42050:1,2014-07-03T20:30:00Z,28.8425,-94.2433,2.0,33.081,11111222 
TABS,ioos:station:wmo:42050:1,2014-07-03T21:00:00Z,28.8425,-94.2433,2.0,33.0913,11111222 
TABS,ioos:station:wmo:42050:1,2014-07-03T21:30:00Z,28.8425,-94.2433,2.0,33.0857,11111222 
TABS,ioos:station:wmo:42050:1,2014-07-03T22:00:00Z,28.8425,-94.2433,2.0,33.0897,11111222 
TABS,ioos:station:wmo:42050:1,2014-07-03T22:30:00Z,28.8425,-94.2433,2.0,33.1008,11111222 
TABS,ioos:station:wmo:42050:1,2014-07-03T23:00:00Z,28.8425,-94.2433,2.0,33.1049,11111222 
TABS,ioos:station:wmo:42050:1,2014-07-03T23:30:00Z,28.8425,-94.2433,2.0,33.1061,11111222 
TABS,ioos:station:wmo:42050:1,2014-07-04T00:00:00Z,28.8425,-94.2433,2.0,33.1175,11111222 
TABS,ioos:station:wmo:42050:1,2014-07-04T00:30:00Z,28.8425,-94.2433,2.0,33.1283,11111222 
TABS,ioos:station:wmo:42050:1,2014-07-04T01:00:00Z,28.8425,-94.2433,2.0,33.1338,11111222 
TABS,ioos:station:wmo:42050:1,2014-07-04T01:30:00Z,28.8425,-94.2433,2.0,33.1355,11111222 
TABS,ioos:station:wmo:42050:1,2014-07-04T02:00:00Z,28.8425,-94.2433,2.0,33.1501,11111222 
TABS,ioos:station:wmo:42050:1,2014-07-04T02:30:00Z,28.8425,-94.2433,2.0,33.1409,11111222 
TABS,ioos:station:wmo:42050:1,2014-07-04T03:00:00Z,28.8425,-94.2433,2.0,33.1454,11111222 
TABS,ioos:station:wmo:42050:1,2014-07-04T03:30:00Z,28.8425,-94.2433,2.0,33.1497,11111222 
TABS,ioos:station:wmo:42050:1,2014-07-04T04:00:00Z,28.8425,-94.2433,2.0,33.1485,11111222 
TABS,ioos:station:wmo:42050:1,2014-07-04T04:30:00Z,28.8425,-94.2433,2.0,33.1511,11111222 
TABS,ioos:station:wmo:42050:1,2014-07-04T05:00:00Z,28.8425,-94.2433,2.0,33.1536,11111222 
TABS,ioos:station:wmo:42050:1,2014-07-04T05:30:00Z,28.8425,-94.2433,2.0,33.1515,11111222 
TABS,ioos:station:wmo:42050:1,2014-07-04T06:00:00Z,28.8425,-94.2433,2.0,33.1507,11111222 
TABS,ioos:station:wmo:42050:1,2014-07-04T06:30:00Z,28.8425,-94.2433,2.0,33.1513,11111222 
TABS,ioos:station:wmo:42050:1,2014-07-04T07:00:00Z,28.8425,-94.2433,2.0,33.1517,11111222 
TABS,ioos:station:wmo:42050:1,2014-07-04T07:30:00Z,28.8425,-94.2433,2.0,33.1504,11111222 
TABS,ioos:station:wmo:42050:1,2014-07-04T08:00:00Z,28.8425,-94.2433,2.0,33.1514,11111222 
TABS,ioos:station:wmo:42050:1,2014-07-04T08:30:00Z,28.8425,-94.2433,2.0,33.1446,11111222 
TABS,ioos:station:wmo:42050:1,2014-07-04T09:00:00Z,28.8425,-94.2433,2.0,33.1487,11111222 
TABS,ioos:station:wmo:42050:1,2014-07-04T09:30:00Z,28.8425,-94.2433,2.0,33.1585,11111222 
TABS,ioos:station:wmo:42050:1,2014-07-04T10:00:00Z,28.8425,-94.2433,2.0,33.1677,11111222 
TABS,ioos:station:wmo:42050:1,2014-07-04T10:30:00Z,28.8425,-94.2433,2.0,33.1728,11111222 
TABS,ioos:station:wmo:42050:1,2014-07-04T11:00:00Z,28.8425,-94.2433,2.0,33.1747,11111222 
TABS,ioos:station:wmo:42050:1,2014-07-04T11:30:00Z,28.8425,-94.2433,2.0,33.1767,11111222 
TABS,ioos:station:wmo:42050:1,2014-07-04T12:00:00Z,28.8425,-94.2433,2.0,33.1808,11111222 
TABS,ioos:station:wmo:42050:1,2014-07-04T12:30:00Z,28.8425,-94.2433,2.0,33.185,11111222 
TABS,ioos:station:wmo:42050:1,2014-07-04T13:00:00Z,28.8425,-94.2433,2.0,33.1862,11111222 
TABS,ioos:station:wmo:42050:1,2014-07-04T13:30:00Z,28.8425,-94.2433,2.0,33.179,11111222 
TABS,ioos:station:wmo:42050:1,2014-07-04T14:00:00Z,28.8425,-94.2433,2.0,33.1715,11111222 
TABS,ioos:station:wmo:42050:1,2014-07-04T14:30:00Z,28.8425,-94.2433,2.0,33.1476,11111222 
TABS,ioos:station:wmo:42050:1,2014-07-04T15:00:00Z,28.8425,-94.2433,2.0,33.1263,11111222 
TABS,ioos:station:wmo:42050:1,2014-07-04T15:30:00Z,28.8425,-94.2433,2.0,33.1004,11111222 
TABS,ioos:station:wmo:42050:1,2014-07-04T16:00:00Z,28.8425,-94.2433,2.0,33.0731,11111222 
TABS,ioos:station:wmo:42050:1,2014-07-04T16:30:00Z,28.8425,-94.2433,2.0,33.0452,11111222 
TABS,ioos:station:wmo:42050:1,2014-07-04T17:00:00Z,28.8425,-94.2433,2.0,33.0222,11111222 
TABS,ioos:station:wmo:42050:1,2014-07-04T17:30:00Z,28.8425,-94.2433,2.0,33.0067,11111222 
TABS,ioos:station:wmo:42050:1,2014-07-04T18:00:00Z,28.8425,-94.2433,2.0,33.0089,11111222 
TABS,ioos:station:wmo:42050:1,2014-07-04T18:30:00Z,28.8425,-94.2433,2.0,32.987,11111222 
TABS,ioos:station:wmo:42050:1,2014-07-04T19:00:00Z,28.8425,-94.2433,2.0,32.9862,11111222 
TABS,ioos:station:wmo:42050:1,2014-07-04T19:30:00Z,28.8425,-94.2433,2.0,32.9838,11111222 
TABS,ioos:station:wmo:42050:1,2014-07-04T20:00:00Z,28.8425,-94.2433,2.0,32.9717,11111222 
TABS,ioos:station:wmo:42050:1,2014-07-04T20:30:00Z,28.8425,-94.2433,2.0,32.968,11111222 
TABS,ioos:station:wmo:42050:1,2014-07-04T21:00:00Z,28.8425,-94.2433,2.0,32.9647,11111222 
TABS,ioos:station:wmo:42050:1,2014-07-04T21:30:00Z,28.8425,-94.2433,2.0,32.9659,11111222 
TABS,ioos:station:wmo:42050:1,2014-07-04T22:00:00Z,28.8425,-94.2433,2.0,32.9673,11111222 
TABS,ioos:station:wmo:42050:1,2014-07-04T22:30:00Z,28.8425,-94.2433,2.0,32.9751,11111222 
TABS,ioos:station:wmo:42050:1,2014-07-04T23:00:00Z,28.8425,-94.2433,2.0,32.9837,11111222 
TABS,ioos:station:wmo:42050:1,2014-07-04T23:30:00Z,28.8425,-94.2433,2.0,33.0052,11111222 
TABS,ioos:station:wmo:42050:1,2014-07-05T00:00:00Z,28.8425,-94.2433,2.0,33.0226,11111222 
TABS,ioos:station:wmo:42050:1,2014-07-05T00:30:00Z,28.8425,-94.2433,2.0,33.0226,11111222 
TABS,ioos:station:wmo:42050:1,2014-07-05T01:00:00Z,28.8425,-94.2433,2.0,33.0095,11111222 
TABS,ioos:station:wmo:42050:1,2014-07-05T01:30:00Z,28.8425,-94.2433,2.0,33.011,11111222 
TABS,ioos:station:wmo:42050:1,2014-07-05T02:00:00Z,28.8425,-94.2433,2.0,33.02,11111222 
TABS,ioos:station:wmo:42050:1,2014-07-05T02:30:00Z,28.8425,-94.2433,2.0,33.0301,11111222 
TABS,ioos:station:wmo:42050:1,2014-07-05T03:00:00Z,28.8425,-94.2433,2.0,33.0387,11111222 
TABS,ioos:station:wmo:42050:1,2014-07-05T03:30:00Z,28.8425,-94.2433,2.0,32.4493,11111222 
TABS,ioos:station:wmo:42050:1,2014-07-05T04:00:00Z,28.8425,-94.2433,2.0,32.2608,11111222 
TABS,ioos:station:wmo:42050:1,2014-07-05T04:30:00Z,28.8425,-94.2433,2.0,32.213,11111222 
TABS,ioos:station:wmo:42050:1,2014-07-05T05:00:00Z,28.8425,-94.2433,2.0,32.1424,11111222 
TABS,ioos:station:wmo:42050:1,2014-07-05T05:30:00Z,28.8425,-94.2433,2.0,32.1264,11111222 
TABS,ioos:station:wmo:42050:1,2014-07-05T06:00:00Z,28.8425,-94.2433,2.0,32.1216,11111222 
TABS,ioos:station:wmo:42050:1,2014-07-05T06:30:00Z,28.8425,-94.2433,2.0,32.1181,11111222 
TABS,ioos:station:wmo:42050:1,2014-07-05T07:00:00Z,28.8425,-94.2433,2.0,32.124,11111222 
TABS,ioos:station:wmo:42050:1,2014-07-05T07:30:00Z,28.8425,-94.2433,2.0,32.1157,11111222 
TABS,ioos:station:wmo:42050:1,2014-07-05T08:00:00Z,28.8425,-94.2433,2.0,32.0789,11111222 
TABS,ioos:station:wmo:42050:1,2014-07-05T08:30:00Z,28.8425,-94.2433,2.0,32.0593,11111222 
TABS,ioos:station:wmo:42050:1,2014-07-05T09:00:00Z,28.8425,-94.2433,2.0,32.0428,11111222 
TABS,ioos:station:wmo:42050:1,2014-07-05T09:30:00Z,28.8425,-94.2433,2.0,32.0424,11111222 
TABS,ioos:station:wmo:42050:1,2014-07-05T10:00:00Z,28.8425,-94.2433,2.0,32.0313,11111222 
TABS,ioos:station:wmo:42050:1,2014-07-05T10:30:00Z,28.8425,-94.2433,2.0,32.0234,11111222 
TABS,ioos:station:wmo:42050:1,2014-07-05T11:00:00Z,28.8425,-94.2433,2.0,32.0135,11111222 
TABS,ioos:station:wmo:42050:1,2014-07-05T11:30:00Z,28.8425,-94.2433,2.0,32.0005,11111222 
TABS,ioos:station:wmo:42050:1,2014-07-05T12:00:00Z,28.8425,-94.2433,2.0,31.9879,11111222 
TABS,ioos:station:wmo:42050:1,2014-07-05T12:30:00Z,28.8425,-94.2433,2.0,31.9769,11111222 
TABS,ioos:station:wmo:42050:1,2014-07-05T13:00:00Z,28.8425,-94.2433,2.0,31.9611,11111222 
TABS,ioos:station:wmo:42050:1,2014-07-05T13:30:00Z,28.8425,-94.2433,2.0,31.9703,11111222 
TABS,ioos:station:wmo:42050:1,2014-07-05T14:00:00Z,28.8425,-94.2433,2.0,31.9783,11111222 
TABS,ioos:station:wmo:42050:1,2014-07-05T14:30:00Z,28.8425,-94.2433,2.0,31.9844,11111222 
TABS,ioos:station:wmo:42050:1,2014-07-05T15:00:00Z,28.8425,-94.2433,2.0,31.9865,11111222 
TABS,ioos:station:wmo:42050:1,2014-07-05T15:30:00Z,28.8425,-94.2433,2.0,31.982,11111222 
TABS,ioos:station:wmo:42050:1,2014-07-05T16:00:00Z,28.8425,-94.2433,2.0,31.9791,11111222 
TABS,ioos:station:wmo:42050:1,2014-07-05T16:30:00Z,28.8425,-94.2433,2.0,31.9823,11111222 
TABS,ioos:station:wmo:42050:1,2014-07-05T17:00:00Z,28.8425,-94.2433,2.0,31.9799,11111222 
TABS,ioos:station:wmo:42050:1,2014-07-05T17:30:00Z,28.8425,-94.2433,2.0,31.977,11111222 
TABS,ioos:station:wmo:42050:1,2014-07-05T18:00:00Z,28.8425,-94.2433,2.0,31.972,11111222 
TABS,ioos:station:wmo:42050:1,2014-07-05T18:30:00Z,28.8425,-94.2433,2.0,31.9635,11111222 
TABS,ioos:station:wmo:42050:1,2014-07-05T19:00:00Z,28.8425,-94.2433,2.0,31.9576,11111222 
TABS,ioos:station:wmo:42050:1,2014-07-05T19:30:00Z,28.8425,-94.2433,2.0,31.9523,11111222 
TABS,ioos:station:wmo:42050:1,2014-07-05T20:00:00Z,28.8425,-94.2433,2.0,31.9524,11111222 
TABS,ioos:station:wmo:42050:1,2014-07-05T20:30:00Z,28.8425,-94.2433,2.0,31.9881,11111222 
TABS,ioos:station:wmo:42050:1,2014-07-05T21:00:00Z,28.8425,-94.2433,2.0,31.9693,11111222 
TABS,ioos:station:wmo:42050:1,2014-07-05T21:30:00Z,28.8425,-94.2433,2.0,31.9666,11111222 
TABS,ioos:station:wmo:42050:1,2014-07-05T22:00:00Z,28.8425,-94.2433,2.0,31.9632,11111222 
TABS,ioos:station:wmo:42050:1,2014-07-05T22:30:00Z,28.8425,-94.2433,2.0,31.9605,11111222 
TABS,ioos:station:wmo:42050:1,2014-07-05T23:00:00Z,28.8425,-94.2433,2.0,31.9675,11111222 
TABS,ioos:station:wmo:42050:1,2014-07-05T23:30:00Z,28.8425,-94.2433,2.0,31.978,11111222 
TABS,ioos:station:wmo:42050:1,2014-07-06T00:00:00Z,28.8425,-94.2433,2.0,31.9816,11111222 
TABS,ioos:station:wmo:42050:1,2014-07-06T00:30:00Z,28.8425,-94.2433,2.0,31.995,11111222 
TABS,ioos:station:wmo:42050:1,2014-07-06T01:00:00Z,28.8425,-94.2433,2.0,32.0061,11111222 
TABS,ioos:station:wmo:42050:1,2014-07-06T01:30:00Z,28.8425,-94.2433,2.0,32.0029,11111222 
TABS,ioos:station:wmo:42050:1,2014-07-06T02:00:00Z,28.8425,-94.2433,2.0,31.9996,11111222 
TABS,ioos:station:wmo:42050:1,2014-07-06T02:30:00Z,28.8425,-94.2433,2.0,32.0095,11111222 
TABS,ioos:station:wmo:42050:1,2014-07-06T03:00:00Z,28.8425,-94.2433,2.0,32.0195,11111222 
TABS,ioos:station:wmo:42050:1,2014-07-06T03:30:00Z,28.8425,-94.2433,2.0,32.0278,11111222 
TABS,ioos:station:wmo:42050:1,2014-07-06T04:00:00Z,28.8425,-94.2433,2.0,32.0421,11111222 
TABS,ioos:station:wmo:42050:1,2014-07-06T04:30:00Z,28.8425,-94.2433,2.0,32.0558,11111222 
TABS,ioos:station:wmo:42050:1,2014-07-06T05:00:00Z,28.8425,-94.2433,2.0,32.0623,11111222 
TABS,ioos:station:wmo:42050:1,2014-07-06T05:30:00Z,28.8425,-94.2433,2.0,32.0702,11111222 
TABS,ioos:station:wmo:42050:1,2014-07-06T06:00:00Z,28.8425,-94.2433,2.0,32.0721,11111222 
TABS,ioos:station:wmo:42050:1,2014-07-06T06:30:00Z,28.8425,-94.2433,2.0,32.0785,11111222 
TABS,ioos:station:wmo:42050:1,2014-07-06T07:00:00Z,28.8425,-94.2433,2.0,32.095,11111222 
TABS,ioos:station:wmo:42050:1,2014-07-06T07:30:00Z,28.8425,-94.2433,2.0,32.1019,11111222 
TABS,ioos:station:wmo:42050:1,2014-07-06T08:00:00Z,28.8425,-94.2433,2.0,32.1731,11111222 
TABS,ioos:station:wmo:42050:1,2014-07-06T08:30:00Z,28.8425,-94.2433,2.0,32.3441,11111222 
TABS,ioos:station:wmo:42050:1,2014-07-06T09:00:00Z,28.8425,-94.2433,2.0,32.3977,11111222 
TABS,ioos:station:wmo:42050:1,2014-07-06T09:30:00Z,28.8425,-94.2433,2.0,32.7295,11111222 
TABS,ioos:station:wmo:42050:1,2014-07-06T10:00:00Z,28.8425,-94.2433,2.0,32.7455,11111222 
TABS,ioos:station:wmo:42050:1,2014-07-06T10:30:00Z,28.8425,-94.2433,2.0,32.7527,11111222 
TABS,ioos:station:wmo:42050:1,2014-07-06T11:00:00Z,28.8425,-94.2433,2.0,32.7675,11111222 
TABS,ioos:station:wmo:42050:1,2014-07-06T11:30:00Z,28.8425,-94.2433,2.0,32.8193,11111222 
TABS,ioos:station:wmo:42050:1,2014-07-06T12:00:00Z,28.8425,-94.2433,2.0,32.8094,11111222 
TABS,ioos:station:wmo:42050:1,2014-07-06T12:30:00Z,28.8425,-94.2433,2.0,32.8056,11111222 